Location: Newark
(31.5350°N, 35.0986°E)
Time: 21:46:39
(UTC+00:00)

Courier 1B - Pass Details

Date: 24 September 2019
Orbit: 962 x 1209 km, 28.3° (Epoch: 18 October)

Event Time Altitude Azimuth Distance (km) Brightness Sun altitude
Exits shadow 01:13:51 34° 168° (SSE) 1,548 8.4 -29.0°
Maximum altitude 01:14:23 35° 158° (SSE) 1,538 8.5 -28.9°
Drops below altitude 10° 01:20:23 10° 95° (E) 2,793 10.7 -27.7°
Sets 01:23:22 0° 87° (E) 3,784 11.8 -27.1°
